Precipitable_Water
1.56 1.54 1.54 1.52 1.52 1.55 1.58 1.65 1.67 1.73 1.70 1.72 1.70 1.74 1.78 1.78 1.82 1.87 1.93 1.91 1.99 2.02 1.98 2.01 2.02 2.01 1.99 2.00 1.99 1.98 1.98 1.99 2.02 2.01 1.96 1.90 1.89 1.83 1.82 1.83 1.70 1.73 1.76 1.72 1.61 1.51 1.51 1.50 1.51 1.55 1.62 1.58 1.53 1.51 1.51 1.48 1.47 1.46 1.48 1.49 1.45 1.45 1.44 1.41 1.34 1.33 1.52 1.59 1.59 1.61 1.66 1.66 1.66 1.73 1.72 1.77 1.80 1.88 1.90 1.79 1.71 1.65 1.65 1.65 1.64
1.54 1.56 1.59 1.59 1.54 1.53 1.56 1.62 1.65 1.67 1.71 1.70 1.69 1.72 1.77 1.80 1.84 1.89 1.89 1.89 1.90 1.90 1.95 2.01 2.04 2.00 1.98 1.99 1.99 1.99 1.97 1.96 2.01 2.00 1.94 1.89 1.86 1.88 1.79 1.73 1.76 1.75 1.74 1.65 1.65 1.60 1.54 1.52 1.52 1.54 1.59 1.57 1.57 1.53 1.51 1.49 1.47 1.44 1.44 1.42 1.44 1.44 1.51 1.43 1.37 1.33 1.32 1.47 1.44 1.56 1.61 1.64 1.54 1.70 1.67 1.69 1.75 1.81 1.84 1.81 1.82 1.69 1.65 1.65 1.63
1.56 1.58 1.61 1.62 1.62 1.62 1.59 1.57 1.61 1.64 1.66 1.71 1.75 1.74 1.75 1.78 1.81 1.85 1.85 1.85 1.91 1.89 1.91 1.98 2.01 2.00 1.99 2.01 1.99 1.97 1.97 1.98 2.01 2.00 1.95 1.93 1.91 1.87 1.80 1.77 1.74 1.68 1.63 1.62 1.64 1.62 1.58 1.54 1.52 1.55 1.58 1.55 1.54 1.53 1.52 1.46 1.44 1.41 1.41 1.44 1.42 1.44 1.49 1.50 1.45 1.36 1.34 1.40 1.49 1.44 1.50 1.61 1.54 1.56 1.63 1.70 1.77 1.83 1.85 1.82 1.78 1.78 1.72 1.68 1.70
1.56 1.62 1.65 1.66 1.71 1.71 1.71 1.72 1.68 1.67 1.69 1.74 1.73 1.74 1.71 1.81 1.79 1.75 1.77 1.77 1.77 1.86 1.89 1.91 1.91 1.87 1.81 1.94 1.97 1.92 1.92 1.96 1.99 1.98 1.94 1.91 1.88 1.83 1.82 1.78 1.75 1.70 1.66 1.63 1.62 1.61 1.58 1.57 1.56 1.57 1.57 1.54 1.54 1.52 1.48 1.43 1.40 1.39 1.37 1.41 1.48 1.48 1.51 1.53 1.57 1.46 1.42 1.34 1.46 1.46 1.53 1.49 1.54 1.60 1.65 1.69 1.70 1.73 1.78 1.84 1.88 1.82 1.81 1.75 1.72
1.60 1.64 1.66 1.68 1.72 1.77 1.73 1.76 1.75 1.72 1.70 1.72 1.70 1.82 1.80 1.81 1.83 1.69 1.67 1.69 1.78 1.83 1.86 1.88 1.86 1.84 1.75 1.83 1.96 1.93 1.92 1.91 1.92 1.95 1.94 1.91 1.90 1.87 1.83 1.80 1.81 1.79 1.75 1.75 1.72 1.65 1.57 1.54 1.56 1.60 1.58 1.51 1.49 1.49 1.49 1.45 1.38 1.35 1.36 1.38 1.44 1.50 1.54 1.55 1.54 1.57 1.55 1.43 1.46 1.52 1.55 1.56 1.62 1.66 1.66 1.59 1.62 1.67 1.73 1.76 1.80 1.85 1.84 1.81 1.84
1.60 1.61 1.63 1.63 1.66 1.74 1.72 1.68 1.73 1.72 1.71 1.68 1.64 1.66 1.72 1.74 1.74 1.87 1.79 1.69 1.77 1.86 1.85 1.83 1.82 1.81 1.82 1.86 1.93 1.95 1.94 1.92 1.91 1.92 1.93 1.93 1.92 1.91 1.87 1.82 1.81 1.86 1.88 1.89 1.87 1.79 1.66 1.55 1.51 1.52 1.54 1.51 1.49 1.48 1.46 1.44 1.42 1.36 1.31 1.31 1.34 1.38 1.39 1.47 1.58 1.63 1.60 1.59 1.55 1.52 1.54 1.48 1.47 1.52 1.63 1.62 1.57 1.55 1.60 1.69 1.75 1.77 1.76 1.77 1.79
1.55 1.59 1.63 1.67 1.65 1.71 1.71 1.68 1.74 1.78 1.74 1.69 1.65 1.67 1.71 1.71 1.73 1.73 1.81 1.65 1.64 1.76 1.80 1.79 1.88 1.91 1.94 1.97 1.92 1.92 1.88 1.90 1.91 1.91 1.92 1.93 1.93 1.91 1.90 1.88 1.84 1.82 1.80 1.79 1.88 1.96 1.86 1.69 1.57 1.51 1.48 1.47 1.46 1.46 1.47 1.44 1.40 1.38 1.39 1.38 1.36 1.35 1.36 1.44 1.56 1.59 1.55 1.55 1.60 1.62 1.58 1.61 1.54 1.47 1.57 1.63 1.60 1.57 1.51 1.52 1.56 1.70 1.74 1.72 1.70
1.61 1.57 1.55 1.60 1.67 1.68 1.68 1.68 1.74 1.75 1.74 1.72 1.73 1.69 1.69 1.74 1.65 1.64 1.61 1.71 1.62 1.61 1.63 1.69 1.79 1.87 1.93 1.94 1.94 1.92 1.88 1.86 1.87 1.89 1.91 1.91 1.90 1.90 1.93 1.90 1.83 1.77 1.77 1.77 1.84 1.95 2.03 1.92 1.79 1.71 1.63 1.56 1.51 1.50 1.50 1.45 1.45 1.39 1.39 1.38 1.37 1.35 1.32 1.35 1.46 1.57 1.59 1.58 1.55 1.55 1.60 1.62 1.64 1.59 1.63 1.61 1.53 1.53 1.55 1.50 1.42 1.49 1.58 1.66 1.66
1.61 1.62 1.62 1.59 1.61 1.66 1.64 1.61 1.60 1.62 1.67 1.68 1.67 1.63 1.61 1.63 1.68 1.64 1.58 1.51 1.55 1.65 1.67 1.61 1.64 1.73 1.85 1.90 1.90 1.94 1.90 1.87 1.86 1.83 1.83 1.85 1.87 1.85 1.87 1.89 1.85 1.77 1.73 1.73 1.80 1.92 1.99 2.05 1.97 1.95 1.91 1.83 1.78 1.71 1.66 1.67 1.61 1.54 1.56 1.51 1.44 1.40 1.33 1.28 1.32 1.50 1.59 1.57 1.60 1.62 1.58 1.57 1.58 1.56 1.51 1.49 1.47 1.45 1.59 1.58 1.48 1.52 1.56 1.56 1.62
1.54 1.58 1.59 1.62 1.66 1.67 1.67 1.62 1.58 1.60 1.62 1.63 1.62 1.61 1.60 1.61 1.65 1.67 1.63 1.59 1.58 1.61 1.63 1.69 1.63 1.63 1.70 1.79 1.85 1.92 1.93 1.96 1.93 1.89 1.89 1.88 1.88 1.86 1.86 1.86 1.84 1.81 1.81 1.80 1.79 1.91 1.96 2.04 2.10 2.08 2.01 1.99 1.99 1.92 1.83 1.77 1.75 1.69 1.68 1.69 1.60 1.51 1.46 1.40 1.33 1.36 1.43 1.45 1.48 1.49 1.46 1.50 1.60 1.61 1.56 1.56 1.61 1.65 1.62 1.61 1.50 1.52 1.55 1.51 1.58
1.43 1.51 1.52 1.58 1.62 1.62 1.59 1.56 1.55 1.54 1.59 1.62 1.64 1.63 1.64 1.67 1.68 1.66 1.62 1.64 1.61 1.60 1.65 1.75 1.70 1.67 1.66 1.75 1.81 1.84 1.88 1.91 1.94 1.95 1.91 1.91 1.90 1.87 1.85 1.86 1.87 1.87 1.88 1.82 1.76 1.75 1.80 1.91 2.04 2.13 2.05 2.07 2.04 1.96 1.90 1.86 1.80 1.76 1.76 1.76 1.78 1.71 1.61 1.53 1.48 1.46 1.44 1.43 1.48 1.48 1.45 1.44 1.50 1.61 1.67 1.67 1.68 1.72 1.72 1.69 1.61 1.58 1.49 1.39 1.31
1.22 1.33 1.44 1.49 1.53 1.53 1.52 1.49 1.45 1.46 1.52 1.54 1.58 1.60 1.59 1.57 1.63 1.70 1.67 1.68 1.67 1.57 1.54 1.45 1.61 1.76 1.82 1.70 1.70 1.77 1.83 1.88 1.91 1.96 1.98 1.93 1.90 1.87 1.87 1.87 1.88 1.88 1.90 1.88 1.87 1.90 1.92 1.92 1.96 2.07 2.10 2.01 1.97 2.00 1.97 1.94 1.91 1.88 1.85 1.85 1.84 1.83 1.82 1.73 1.64 1.59 1.58 1.53 1.52 1.51 1.48 1.43 1.46 1.54 1.60 1.62 1.62 1.67 1.70 1.76 1.75 1.66 1.56 1.50 1.45
1.16 1.11 1.22 1.24 1.33 1.43 1.45 1.44 1.44 1.44 1.46 1.49 1.53 1.53 1.50 1.51 1.56 1.62 1.65 1.67 1.63 1.57 1.56 1.59 1.56 1.63 1.61 1.49 1.48 1.66 1.63 1.66 1.80 1.91 1.93 1.93 1.91 1.91 1.91 1.90 1.87 1.85 1.86 1.87 1.85 1.84 1.85 1.83 1.82 1.82 1.89 1.99 1.97 1.94 1.92 1.91 1.93 1.92 1.90 1.89 1.89 1.88 1.87 1.87 1.87 1.81 1.81 1.74 1.64 1.59 1.56 1.54 1.50 1.52 1.59 1.61 1.69 1.60 1.63 1.64 1.71 1.76 1.74 1.69 1.67
1.00 1.06 1.12 1.10 1.09 1.17 1.26 1.32 1.33 1.36 1.41 1.44 1.45 1.44 1.43 1.43 1.50 1.61 1.62 1.60 1.60 1.63 1.64 1.63 1.63 1.72 1.80 1.78 1.73 1.69 1.68 1.70 1.72 1.79 1.83 1.86 1.83 1.85 1.87 1.88 1.88 1.87 1.84 1.83 1.81 1.81 1.80 1.79 1.76 1.75 1.87 1.96 1.94 1.88 1.85 1.85 1.87 1.87 1.85 1.83 1.82 1.82 1.84 1.85 1.84 1.84 1.84 1.78 1.71 1.62 1.68 1.74 1.64 1.68 1.77 1.78 1.67 1.59 1.60 1.57 1.60 1.61 1.66 1.66 1.75
0.90 0.93 1.00 1.04 0.99 0.96 0.99 1.07 1.17 1.25 1.32 1.37 1.40 1.39 1.39 1.42 1.44 1.45 1.51 1.54 1.53 1.54 1.60 1.64 1.67 1.70 1.74 1.81 1.78 1.74 1.74 1.80 1.83 1.82 1.81 1.81 1.82 1.83 1.84 1.85 1.84 1.87 1.89 1.85 1.83 1.81 1.85 1.87 1.84 1.83 1.87 1.87 1.87 1.83 1.77 1.75 1.74 1.76 1.82 1.82 1.82 1.80 1.80 1.82 1.83 1.84 1.83 1.81 1.76 1.71 1.70 1.74 1.74 1.75 1.78 1.84 1.80 1.75 1.72 1.69 1.70 1.72 1.78 1.84 1.81
0.89 0.93 0.95 0.98 0.94 0.91 0.86 0.86 0.95 1.07 1.19 1.24 1.27 1.31 1.36 1.39 1.39 1.43 1.43 1.47 1.56 1.62 1.66 1.71 1.71 1.72 1.77 1.84 1.78 1.73 1.77 1.83 1.80 1.81 1.90 1.90 1.88 1.86 1.79 1.72 1.71 1.75 1.80 1.86 1.83 1.84 1.86 1.83 1.80 1.83 1.83 1.82 1.82 1.79 1.76 1.77 1.78 1.79 1.82 1.85 1.83 1.82 1.82 1.90 1.96 1.98 1.97 1.94 1.89 1.83 1.80 1.79 1.78 1.76 1.76 1.77 1.79 1.81 1.82 1.80 1.78 1.75 1.69 1.62 1.56
0.88 0.90 0.93 0.98 0.98 0.92 0.82 0.82 0.90 0.90 0.99 1.08 1.11 1.17 1.25 1.33 1.39 1.46 1.43 1.46 1.51 1.60 1.68 1.77 1.82 1.77 1.78 1.80 1.74 1.73 1.79 1.80 1.78 1.79 1.83 1.89 1.87 1.78 1.74 1.75 1.70 1.61 1.62 1.66 1.68 1.77 1.87 1.88 1.82 1.77 1.76 1.73 1.72 1.71 1.74 1.81 1.81 1.79 1.75 1.72 1.74 1.71 1.71 1.83 1.87 1.85 1.86 1.89 1.91 1.92 1.91 1.91 1.89 1.86 1.85 1.84 1.83 1.85 1.81 1.71 1.65 1.71 1.61 1.49 1.49
0.89 0.90 0.92 0.97 0.98 0.97 0.92 0.82 0.79 0.88 0.92 0.95 1.04 1.11 1.21 1.30 1.36 1.45 1.44 1.46 1.51 1.60 1.67 1.71 1.77 1.79 1.75 1.71 1.55 1.46 1.48 1.52 1.56 1.60 1.62 1.69 1.82 1.86 1.80 1.77 1.68 1.66 1.68 1.77 1.80 1.79 1.82 1.85 1.84 1.75 1.69 1.66 1.68 1.70 1.75 1.79 1.77 1.82 1.79 1.72 1.64 1.62 1.67 1.76 1.76 1.76 1.82 1.80 1.77 1.74 1.72 1.69 1.67 1.67 1.68 1.71 1.76 1.82 1.74 1.59 1.64 1.69 1.57 1.52 1.43
0.86 0.88 0.88 0.90 0.92 0.95 0.97 0.92 0.84 0.84 0.88 0.90 0.98 1.09 1.16 1.23 1.32 1.39 1.45 1.50 1.53 1.62 1.64 1.57 1.55 1.66 1.71 1.64 1.57 1.53 1.57 1.66 1.73 1.75 1.75 1.73 1.72 1.69 1.66 1.61 1.63 1.60 1.59 1.65 1.75 1.75 1.80 1.82 1.80 1.75 1.71 1.69 1.70 1.71 1.73 1.78 1.75 1.72 1.65 1.57 1.48 1.43 1.48 1.57 1.51 1.48 1.52 1.54 1.57 1.62 1.62 1.66 1.70 1.70 1.71 1.74 1.75 1.78 1.79 1.74 1.74 1.65 1.53 1.52 1.54
0.95 0.95 0.95 0.95 0.94 0.93 0.96 0.96 0.91 0.86 0.85 0.91 0.95 0.97 1.10 1.22 1.28 1.31 1.36 1.46 1.52 1.57 1.54 1.49 1.47 1.52 1.61 1.62 1.56 1.59 1.57 1.60 1.69 1.74 1.75 1.78 1.80 1.77 1.78 1.67 1.56 1.57 1.60 1.58 1.59 1.71 1.73 1.72 1.74 1.73 1.69 1.69 1.68 1.63 1.59 1.58 1.53 1.51 1.48 1.39 1.33 1.29 1.45 1.46 1.45 1.46 1.44 1.44 1.45 1.50 1.52 1.60 1.65 1.68 1.70 1.72 1.75 1.80 1.83 1.85 1.83 1.77 1.67 1.63 1.63
0.97 0.97 0.99 0.99 0.99 0.99 0.98 0.97 0.94 0.91 0.91 0.89 0.94 0.98 0.98 1.05 1.20 1.28 1.32 1.39 1.46 1.46 1.43 1.41 1.43 1.43 1.50 1.54 1.55 1.58 1.62 1.60 1.65 1.70 1.74 1.76 1.76 1.74 1.75 1.71 1.60 1.58 1.61 1.61 1.60 1.69 1.71 1.73 1.75 1.74 1.71 1.69 1.68 1.66 1.61 1.56 1.55 1.52 1.49 1.40 1.39 1.42 1.45 1.36 1.34 1.39 1.37 1.37 1.38 1.40 1.41 1.45 1.48 1.49 1.49 1.53 1.57 1.62 1.68 1.74 1.78 1.81 1.77 1.71 1.66
1.02 1.01 1.01 1.02 1.03 1.02 1.01 0.99 0.99 0.97 0.94 0.94 0.94 0.98 1.05 1.07 1.10 1.22 1.31 1.35 1.37 1.36 1.36 1.42 1.45 1.44 1.49 1.57 1.61 1.62 1.63 1.64 1.66 1.71 1.71 1.68 1.66 1.67 1.62 1.63 1.69 1.62 1.54 1.62 1.60 1.52 1.52 1.60 1.73 1.77 1.71 1.66 1.66 1.63 1.58 1.54 1.51 1.47 1.43 1.43 1.44 1.42 1.36 1.36 1.37 1.36 1.33 1.31 1.29 1.27 1.27 1.28 1.29 1.32 1.35 1.38 1.42 1.48 1.53 1.57 1.62 1.68 1.75 1.80 1.77
1.02 1.02 1.02 1.03 1.04 1.05 1.06 1.04 1.03 1.02 0.98 0.97 0.95 0.95 1.00 1.02 1.03 1.12 1.27 1.32 1.35 1.33 1.30 1.35 1.42 1.44 1.46 1.51 1.60 1.67 1.65 1.62 1.63 1.65 1.67 1.65 1.63 1.62 1.60 1.61 1.66 1.68 1.57 1.51 1.53 1.57 1.68 1.77 1.80 1.74 1.61 1.56 1.54 1.52 1.51 1.50 1.46 1.41 1.39 1.38 1.37 1.37 1.37 1.35 1.34 1.31 1.28 1.25 1.23 1.18 1.18 1.22 1.22 1.21 1.24 1.28 1.38 1.48 1.56 1.64 1.68 1.71 1.74 1.79 1.86
1.04 1.03 1.04 1.05 1.07 1.09 1.10 1.10 1.08 1.05 1.03 1.01 0.98 0.96 0.97 1.01 1.01 1.06 1.16 1.23 1.26 1.28 1.26 1.30 1.32 1.34 1.37 1.43 1.52 1.59 1.62 1.60 1.57 1.56 1.56 1.55 1.54 1.56 1.56 1.54 1.54 1.55 1.53 1.50 1.55 1.66 1.66 1.66 1.69 1.67 1.56 1.53 1.50 1.47 1.44 1.42 1.38 1.36 1.35 1.32 1.31 1.31 1.29 1.25 1.21 1.17 1.14 1.10 1.06 1.04 1.04 1.10 1.14 1.13 1.17 1.30 1.42 1.52 1.60 1.68 1.74 1.80 1.83 1.88 1.95
1.01 1.01 1.04 1.06 1.07 1.10 1.12 1.13 1.13 1.10 1.07 1.05 1.00 0.97 0.96 1.00 1.00 1.05 1.11 1.17 1.21 1.19 1.22 1.24 1.24 1.27 1.31 1.33 1.39 1.50 1.56 1.57 1.57 1.57 1.55 1.55 1.61 1.60 1.55 1.54 1.52 1.49 1.46 1.53 1.57 1.57 1.62 1.59 1.56 1.53 1.51 1.49 1.46 1.43 1.38 1.35 1.34 1.31 1.29 1.27 1.27 1.23 1.18 1.13 1.08 1.04 0.96 0.89 0.87 0.89 0.94 1.01 1.07 1.10 1.24 1.39 1.49 1.55 1.57 1.63 1.72 1.79 1.86 1.93 1.99
1.02 1.03 1.05 1.07 1.09 1.11 1.10 1.11 1.13 1.14 1.12 1.09 1.07 1.06 1.03 1.00 0.99 1.03 1.03 1.06 1.14 1.21 1.21 1.22 1.21 1.24 1.28 1.35 1.42 1.50 1.55 1.57 1.56 1.57 1.59 1.61 1.60 1.59 1.60 1.63 1.59 1.54 1.52 1.51 1.51 1.51 1.51 1.50 1.49 1.48 1.45 1.43 1.39 1.34 1.30 1.30 1.30 1.28 1.26 1.26 1.24 1.20 1.17 1.12 1.08 1.02 0.93 0.91 0.90 0.88 0.94 1.05 1.13 1.24 1.36 1.42 1.40 1.40 1.50 1.53 1.58 1.61 1.72 1.79 1.83
1.05 1.06 1.07 1.08 1.09 1.10 1.09 1.09 1.10 1.12 1.14 1.13 1.11 1.08 1.07 1.07 1.06 1.06 1.10 1.06 1.09 1.17 1.22 1.23 1.23 1.24 1.24 1.29 1.39 1.49 1.53 1.54 1.52 1.52 1.55 1.59 1.59 1.58 1.57 1.53 1.51 1.51 1.51 1.50 1.49 1.45 1.42 1.40 1.37 1.36 1.36 1.34 1.33 1.31 1.28 1.28 1.25 1.24 1.24 1.24 1.22 1.20 1.17 1.12 1.06 1.02 1.01 1.02 1.02 1.04 1.11 1.21 1.29 1.28 1.25 1.29 1.29 1.36 1.46 1.47 1.48 1.52 1.65 1.75 1.75
1.07 1.06 1.06 1.07 1.07 1.10 1.13 1.14 1.16 1.15 1.16 1.17 1.14 1.12 1.10 1.10 1.08 1.05 1.08 1.11 1.10 1.10 1.19 1.26 1.28 1.29 1.24 1.28 1.32 1.38 1.42 1.45 1.49 1.51 1.53 1.54 1.55 1.58 1.57 1.54 1.53 1.53 1.53 1.55 1.55 1.51 1.42 1.35 1.29 1.27 1.26 1.26 1.26 1.27 1.27 1.29 1.29 1.27 1.27 1.29 1.28 1.27 1.25 1.25 1.26 1.24 1.22 1.24 1.22 1.24 1.24 1.24 1.19 1.19 1.22 1.23 1.23 1.29 1.40 1.44 1.45 1.49 1.60 1.68 1.65
1.07 1.09 1.13 1.15 1.14 1.15 1.16 1.18 1.21 1.22 1.21 1.22 1.20 1.17 1.11 1.10 1.13 1.15 1.21 1.27 1.24 1.12 1.09 1.17 1.28 1.36 1.35 1.28 1.26 1.28 1.35 1.39 1.47 1.59 1.60 1.61 1.61 1.63 1.64 1.63 1.65 1.65 1.67 1.68 1.64 1.60 1.55 1.48 1.41 1.37 1.36 1.34 1.35 1.36 1.37 1.34 1.30 1.36 1.39 1.41 1.41 1.41 1.40 1.36 1.30 1.27 1.28 1.28 1.21 1.19 1.19 1.20 1.16 1.17 1.16 1.16 1.19 1.25 1.37 1.41 1.47 1.50 1.56 1.64 1.61
1.13 1.11 1.11 1.13 1.16 1.20 1.21 1.19 1.18 1.20 1.19 1.18 1.22 1.23 1.25 1.22 1.18 1.13 1.13 1.25 1.28 1.24 1.16 1.10 1.22 1.36 1.39 1.35 1.31 1.26 1.26 1.38 1.54 1.57 1.56 1.57 1.58 1.60 1.65 1.69 1.74 1.76 1.77 1.77 1.74 1.62 1.58 1.53 1.50 1.45 1.45 1.46 1.44 1.40 1.37 1.37 1.35 1.35 1.39 1.43 1.44 1.44 1.46 1.46 1.43 1.40 1.40 1.36 1.33 1.28 1.21 1.19 1.14 1.15 1.16 1.16 1.19 1.27 1.36 1.38 1.38 1.51 1.53 1.55 1.58
1.16 1.15 1.16 1.16 1.18 1.20 1.19 1.15 1.13 1.15 1.18 1.18 1.19 1.16 1.13 1.17 1.21 1.23 1.23 1.21 1.20 1.21 1.21 1.19 1.17 1.21 1.30 1.23 1.23 1.29 1.31 1.36 1.44 1.49 1.52 1.55 1.57 1.59 1.60 1.63 1.67 1.70 1.74 1.71 1.67 1.60 1.53 1.47 1.44 1.45 1.46 1.48 1.44 1.40 1.38 1.33 1.29 1.30 1.32 1.38 1.43 1.45 1.46 1.45 1.46 1.48 1.47 1.44 1.42 1.36 1.30 1.25 1.21 1.21 1.18 1.19 1.19 1.23 1.30 1.37 1.39 1.42 1.49 1.54 1.57
1.16 1.16 1.18 1.19 1.19 1.18 1.18 1.16 1.14 1.14 1.16 1.18 1.19 1.18 1.14 1.07 1.06 1.14 1.17 1.18 1.21 1.20 1.18 1.21 1.23 1.20 1.15 1.14 1.11 1.12 1.20 1.26 1.30 1.36 1.43 1.50 1.54 1.57 1.61 1.64 1.68 1.70 1.71 1.70 1.58 1.56 1.55 1.50 1.43 1.38 1.39 1.36 1.35 1.38 1.39 1.37 1.35 1.35 1.37 1.36 1.38 1.42 1.43 1.42 1.47 1.47 1.44 1.42 1.37 1.34 1.33 1.30 1.27 1.24 1.22 1.22 1.22 1.21 1.23 1.24 1.27 1.32 1.41 1.49 1.52
1.15 1.16 1.20 1.22 1.22 1.21 1.20 1.20 1.20 1.19 1.18 1.16 1.14 1.15 1.13 1.09 1.02 0.99 1.08 1.16 1.18 1.20 1.20 1.18 1.17 1.21 1.23 1.21 1.19 1.13 1.10 1.15 1.22 1.27 1.33 1.39 1.45 1.51 1.57 1.60 1.61 1.65 1.66 1.59 1.52 1.50 1.52 1.49 1.44 1.41 1.39 1.36 1.36 1.36 1.36 1.38 1.39 1.40 1.41 1.39 1.37 1.41 1.44 1.49 1.55 1.51 1.47 1.45 1.43 1.39 1.37 1.34 1.32 1.29 1.27 1.28 1.26 1.20 1.21 1.20 1.23 1.27 1.31 1.35 1.42
1.17 1.19 1.20 1.23 1.23 1.23 1.22 1.20 1.20 1.21 1.24 1.23 1.20 1.16 1.16 1.16 1.13 1.10 1.05 1.05 1.08 1.14 1.20 1.21 1.20 1.20 1.21 1.22 1.22 1.22 1.17 1.12 1.12 1.17 1.22 1.27 1.32 1.37 1.43 1.46 1.50 1.53 1.52 1.46 1.46 1.43 1.45 1.44 1.43 1.40 1.39 1.38 1.37 1.37 1.36 1.35 1.36 1.38 1.41 1.44 1.46 1.49 1.50 1.53 1.51 1.47 1.46 1.48 1.46 1.44 1.41 1.39 1.38 1.32 1.27 1.26 1.27 1.25 1.21 1.21 1.22 1.20 1.20 1.26 1.33
1.19 1.20 1.24 1.27 1.27 1.26 1.26 1.26 1.25 1.25 1.26 1.24 1.21 1.21 1.20 1.20 1.18 1.14 1.10 1.05 1.03 1.03 1.05 1.12 1.18 1.18 1.17 1.19 1.22 1.24 1.24 1.21 1.15 1.13 1.15 1.18 1.22 1.27 1.31 1.31 1.29 1.33 1.36 1.37 1.36 1.34 1.33 1.34 1.33 1.34 1.35 1.33 1.34 1.36 1.35 1.35 1.36 1.37 1.39 1.39 1.42 1.46 1.50 1.53 1.53 1.53 1.52 1.52 1.51 1.47 1.45 1.42 1.41 1.38 1.32 1.26 1.25 1.22 1.20 1.21 1.22 1.22 1.19 1.21 1.29
1.22 1.25 1.27 1.29 1.29 1.27 1.25 1.26 1.27 1.27 1.29 1.29 1.25 1.22 1.23 1.25 1.23 1.19 1.18 1.15 1.11 1.07 1.08 1.13 1.16 1.18 1.18 1.18 1.23 1.23 1.22 1.23 1.22 1.19 1.15 1.16 1.20 1.24 1.16 1.13 1.15 1.18 1.22 1.26 1.27 1.28 1.30 1.30 1.30 1.30 1.32 1.33 1.36 1.37 1.36 1.35 1.35 1.36 1.40 1.44 1.47 1.51 1.52 1.51 1.52 1.54 1.56 1.57 1.54 1.53 1.51 1.47 1.44 1.41 1.39 1.35 1.29 1.26 1.25 1.23 1.23 1.23 1.23 1.22 1.24
1.25 1.28 1.30 1.30 1.29 1.28 1.28 1.29 1.29 1.29 1.30 1.30 1.27 1.23 1.25 1.27 1.27 1.24 1.21 1.18 1.19 1.18 1.14 1.13 1.13 1.14 1.18 1.22 1.27 1.28 1.28 1.26 1.25 1.21 1.19 1.20 1.22 1.22 1.21 1.19 1.15 1.16 1.16 1.18 1.21 1.22 1.21 1.22 1.25 1.27 1.29 1.30 1.31 1.34 1.35 1.35 1.37 1.38 1.41 1.47 1.52 1.56 1.56 1.55 1.56 1.57 1.57 1.54 1.54 1.54 1.52 1.47 1.44 1.42 1.40 1.34 1.33 1.30 1.27 1.26 1.26 1.24 1.23 1.23 1.23
1.28 1.31 1.31 1.28 1.25 1.24 1.26 1.28 1.29 1.29 1.29 1.29 1.30 1.30 1.27 1.22 1.20 1.17 1.13 1.12 1.17 1.16 1.13 1.13 1.12 1.09 1.08 1.14 1.25 1.26 1.24 1.25 1.25 1.21 1.18 1.17 1.15 1.15 1.17 1.17 1.18 1.16 1.16 1.18 1.21 1.22 1.21 1.22 1.25 1.25 1.28 1.33 1.33 1.36 1.39 1.42 1.44 1.46 1.52 1.57 1.61 1.62 1.61 1.61 1.61 1.62 1.60 1.57 1.56 1.57 1.55 1.51 1.49 1.46 1.45 1.40 1.37 1.35 1.31 1.27 1.24 1.22 1.23 1.23 1.22
1.27 1.30 1.28 1.23 1.21 1.22 1.24 1.26 1.28 1.29 1.29 1.28 1.28 1.29 1.29 1.24 1.24 1.21 1.21 1.21 1.22 1.23 1.22 1.18 1.15 1.14 1.17 1.24 1.26 1.29 1.24 1.18 1.20 1.26 1.25 1.20 1.19 1.18 1.17 1.16 1.16 1.16 1.17 1.18 1.20 1.21 1.22 1.23 1.27 1.30 1.31 1.31 1.32 1.34 1.36 1.39 1.47 1.50 1.52 1.55 1.53 1.51 1.50 1.51 1.53 1.59 1.65 1.67 1.67 1.65 1.63 1.60 1.58 1.55 1.51 1.47 1.44 1.42 1.37 1.32 1.28 1.25 1.22 1.21 1.21
1.15 1.17 1.17 1.17 1.17 1.19 1.21 1.24 1.28 1.29 1.31 1.29 1.27 1.26 1.24 1.26 1.27 1.22 1.25 1.25 1.24 1.23 1.21 1.18 1.17 1.20 1.27 1.31 1.31 1.30 1.23 1.18 1.21 1.29 1.33 1.35 1.34 1.31 1.27 1.22 1.18 1.16 1.16 1.19 1.21 1.21 1.20 1.21 1.25 1.28 1.29 1.30 1.31 1.32 1.36 1.38 1.39 1.38 1.33 1.26 1.31 1.40 1.54 1.59 1.49 1.42 1.48 1.59 1.64 1.73 1.66 1.61 1.61 1.60 1.58 1.54 1.52 1.49 1.43 1.36 1.32 1.29 1.25 1.23 1.24
1.11 1.12 1.13 1.13 1.14 1.14 1.16 1.19 1.22 1.26 1.31 1.33 1.34 1.31 1.28 1.27 1.26 1.25 1.22 1.21 1.23 1.18 1.19 1.20 1.21 1.27 1.31 1.32 1.33 1.34 1.29 1.24 1.29 1.36 1.39 1.38 1.38 1.34 1.36 1.39 1.35 1.33 1.31 1.31 1.34 1.36 1.35 1.35 1.36 1.35 1.37 1.48 1.49 1.43 1.42 1.42 1.44 1.44 1.39 1.45 1.48 1.52 1.57 1.52 1.45 1.42 1.44 1.48 1.54 1.59 1.63 1.61 1.58 1.57 1.54 1.55 1.56 1.56 1.52 1.46 1.40 1.37 1.33 1.28 1.26
1.05 1.05 1.06 1.08 1.10 1.08 1.07 1.07 1.13 1.20 1.28 1.32 1.33 1.30 1.30 1.30 1.29 1.28 1.27 1.23 1.22 1.26 1.25 1.22 1.24 1.28 1.32 1.35 1.34 1.34 1.30 1.28 1.32 1.37 1.40 1.44 1.44 1.43 1.43 1.38 1.38 1.39 1.38 1.40 1.42 1.41 1.41 1.38 1.39 1.44 1.44 1.43 1.49 1.55 1.60 1.59 1.48 1.41 1.40 1.36 1.30 1.34 1.40 1.45 1.45 1.45 1.51 1.52 1.55 1.61 1.62 1.60 1.58 1.58 1.59 1.58 1.56 1.56 1.55 1.50 1.46 1.43 1.39 1.33 1.28
1.01 1.01 1.02 1.03 1.03 1.03 1.02 1.01 1.04 1.06 1.13 1.24 1.30 1.32 1.31 1.31 1.30 1.30 1.31 1.30 1.29 1.27 1.24 1.20 1.21 1.23 1.25 1.31 1.33 1.34 1.30 1.30 1.32 1.33 1.31 1.32 1.36 1.47 1.47 1.44 1.44 1.48 1.42 1.41 1.45 1.45 1.45 1.45 1.48 1.46 1.40 1.37 1.46 1.55 1.61 1.58 1.52 1.45 1.40 1.36 1.35 1.35 1.42 1.49 1.50 1.50 1.51 1.54 1.54 1.56 1.59 1.62 1.60 1.57 1.56 1.56 1.58 1.58 1.53 1.50 1.50 1.49 1.44 1.39 1.36
0.97 0.97 0.98 1.00 1.01 1.00 1.00 1.00 0.99 0.99 1.00 1.08 1.21 1.29 1.29 1.28 1.27 1.26 1.26 1.28 1.30 1.30 1.30 1.30 1.30 1.29 1.31 1.36 1.37 1.36 1.34 1.37 1.35 1.33 1.33 1.37 1.38 1.41 1.46 1.50 1.50 1.51 1.49 1.48 1.48 1.50 1.53 1.53 1.50 1.49 1.54 1.55 1.56 1.63 1.66 1.65 1.63 1.53 1.48 1.47 1.45 1.42 1.41 1.41 1.47 1.50 1.53 1.55 1.59 1.60 1.62 1.63 1.63 1.62 1.60 1.60 1.59 1.58 1.60 1.59 1.59 1.56 1.51 1.47 1.45
0.91 0.92 0.92 0.93 0.95 0.94 0.94 0.95 0.95 0.95 0.96 0.96 1.00 1.12 1.22 1.25 1.24 1.23 1.24 1.25 1.27 1.27 1.27 1.28 1.30 1.30 1.30 1.33 1.35 1.33 1.35 1.37 1.37 1.35 1.34 1.36 1.41 1.43 1.45 1.46 1.46 1.43 1.41 1.42 1.44 1.44 1.41 1.42 1.42 1.40 1.39 1.44 1.48 1.53 1.58 1.62 1.61 1.57 1.56 1.53 1.52 1.50 1.49 1.48 1.48 1.55 1.59 1.58 1.62 1.61 1.69 1.67 1.63 1.62 1.59 1.58 1.60 1.61 1.59 1.61 1.67 1.69 1.65 1.57 1.49
0.88 0.89 0.89 0.90 0.91 0.92 0.92 0.92 0.93 0.91 0.90 0.90 0.90 0.91 0.99 1.11 1.19 1.21 1.22 1.22 1.22 1.22 1.23 1.21 1.20 1.22 1.24 1.27 1.30 1.30 1.30 1.29 1.30 1.31 1.30 1.33 1.36 1.40 1.42 1.42 1.42 1.41 1.40 1.39 1.39 1.38 1.37 1.36 1.34 1.33 1.33 1.34 1.34 1.37 1.41 1.43 1.40 1.37 1.37 1.39 1.43 1.44 1.46 1.47 1.43 1.40 1.48 1.54 1.55 1.54 1.57 1.58 1.59 1.61 1.63 1.65 1.61 1.55 1.52 1.55 1.63 1.65 1.61 1.58 1.63
0.89 0.88 0.89 0.88 0.88 0.89 0.91 0.92 0.92 0.91 0.88 0.87 0.87 0.88 0.89 0.92 1.00 1.10 1.18 1.20 1.20 1.19 1.17 1.17 1.16 1.17 1.20 1.22 1.23 1.22 1.23 1.23 1.24 1.27 1.30 1.32 1.33 1.35 1.36 1.37 1.36 1.36 1.36 1.37 1.36 1.36 1.36 1.35 1.34 1.32 1.30 1.32 1.33 1.32 1.31 1.30 1.29 1.27 1.26 1.27 1.30 1.33 1.35 1.35 1.37 1.42 1.44 1.47 1.54 1.55 1.50 1.48 1.47 1.53 1.60 1.60 1.55 1.53 1.55 1.58 1.61 1.63 1.62 1.58 1.56
0.86 0.87 0.87 0.88 0.88 0.87 0.88 0.89 0.90 0.91 0.90 0.89 0.88 0.88 0.89 0.89 0.90 0.93 1.00 1.08 1.15 1.18 1.16 1.15 1.16 1.17 1.17 1.18 1.21 1.22 1.23 1.22 1.22 1.23 1.27 1.30 1.31 1.33 1.33 1.34 1.34 1.34 1.33 1.31 1.30 1.29 1.28 1.27 1.26 1.25 1.25 1.25 1.26 1.25 1.24 1.24 1.23 1.20 1.18 1.18 1.19 1.20 1.21 1.22 1.23 1.27 1.29 1.33 1.41 1.45 1.45 1.44 1.47 1.49 1.51 1.51 1.52 1.56 1.59 1.60 1.60 1.61 1.58 1.55 1.56
0.69 0.71 0.73 0.78 0.83 0.85 0.86 0.87 0.88 0.88 0.89 0.89 0.90 0.90 0.89 0.89 0.89 0.90 0.91 0.93 0.99 1.06 1.10 1.11 1.13 1.15 1.15 1.16 1.17 1.19 1.20 1.21 1.20 1.19 1.19 1.20 1.22 1.24 1.26 1.27 1.26 1.26 1.25 1.25 1.24 1.23 1.22 1.22 1.21 1.20 1.18 1.17 1.15 1.13 1.13 1.13 1.11 1.10 1.10 1.12 1.14 1.16 1.18 1.18 1.18 1.19 1.21 1.24 1.27 1.32 1.38 1.42 1.42 1.42 1.46 1.49 1.50 1.53 1.54 1.55 1.57 1.58 1.57 1.52 1.49
0.54 0.57 0.58 0.61 0.66 0.75 0.84 0.87 0.88 0.89 0.90 0.90 0.90 0.90 0.91 0.89 0.88 0.89 0.89 0.90 0.91 0.93 0.98 1.03 1.07 1.09 1.11 1.12 1.14 1.16 1.17 1.17 1.17 1.17 1.16 1.16 1.17 1.18 1.19 1.20 1.21 1.21 1.20 1.18 1.17 1.16 1.15 1.14 1.14 1.13 1.13 1.11 1.09 1.05 1.04 1.03 1.02 1.01 1.01 1.01 1.01 1.03 1.06 1.10 1.15 1.18 1.18 1.18 1.20 1.24 1.29 1.31 1.34 1.38 1.40 1.41 1.44 1.49 1.48 1.48 1.54 1.57 1.49 1.40 1.39
0.50 0.50 0.52 0.53 0.56 0.61 0.71 0.79 0.84 0.87 0.89 0.90 0.90 0.90 0.91 0.91 0.90 0.90 0.90 0.89 0.88 0.88 0.89 0.92 0.96 0.99 1.02 1.05 1.07 1.09 1.11 1.13 1.15 1.16 1.16 1.15 1.14 1.14 1.14 1.15 1.16 1.17 1.17 1.17 1.16 1.16 1.15 1.14 1.13 1.13 1.12 1.11 1.09 1.06 1.04 1.03 1.02 1.01 0.99 0.98 0.97 0.97 0.98 0.98 0.99 1.03 1.09 1.14 1.17 1.19 1.21 1.23 1.24 1.24 1.27 1.28 1.30 1.32 1.35 1.39 1.47 1.53 1.55 1.52 1.46
Wind_Speed
12 12 13 12 12 11 11 10 10 10 10 10 10 10 10 10 9 9 9 11 12 13 14 14 15 16 16 15 16 18 19 20 21 22 24 25 25 25 24 24 24 24 23 23 23 22 22 22 22 21 21 21 20 20 20 19 19 18 18 18 17 17 16 16 16 15 15 16 15 15 15 16 15 15 15 14 14 15 16 15 14 14 15 15 15
12 12 13 13 13 12 11 11 10 10 10 10 10 10 10 10 9 9 9 10 11 12 13 14 15 15 16 16 16 18 19 20 21 21 23 25 25 25 25 25 25 25 24 24 23 23 23 23 23 22 21 21 21 20 20 20 19 19 19 18 18 18 18 17 17 17 17 17 17 16 16 17 17 16 16 16 15 15 17 16 15 15 16 16 16
13 13 14 13 13 12 12 12 11 11 11 11 11 10 10 10 9 9 9 9 9 11 12 14 14 15 16 17 17 18 18 20 21 22 23 24 25 25 26 26 25 25 25 25 25 25 24 23 23 23 22 22 21 21 21 20 20 20 20 20 19 19 19 19 18 18 18 17 17 18 17 17 18 17 17 17 17 16 17 17 17 16 16 17 17
13 14 14 14 14 13 13 13 12 12 12 11 11 11 11 10 9 9 9 8 9 10 11 13 14 15 16 17 17 17 18 19 21 22 24 24 25 25 26 26 26 26 26 26 26 26 26 25 24 24 23 23 22 22 21 21 21 21 20 20 20 19 19 19 19 19 19 18 18 18 18 18 18 18 18 18 18 18 18 18 18 18 18 18 18
15 14 14 15 15 15 14 14 13 13 13 12 12 12 12 11 10 10 9 9 9 10 11 12 13 14 15 16 17 17 18 19 20 22 24 25 25 26 26 27 27 27 27 27 27 27 27 27 26 25 24 24 23 23 22 22 22 21 21 20 20 20 19 19 19 19 20 19 19 19 19 19 19 19 19 19 19 19 19 19 19 19 20 19 19
16 16 16 16 16 16 15 15 15 14 14 13 13 13 12 12 11 11 10 10 11 11 11 12 13 14 15 16 16 17 17 18 20 21 23 24 25 26 27 27 28 28 27 28 28 28 28 28 27 26 25 25 24 24 23 23 22 22 22 22 21 21 20 20 20 20 20 20 20 20 20 20 20 20 19 19 20 20 20 21 21 21 21 21 21
17 17 17 17 18 17 17 16 16 15 15 14 14 14 13 13 13 13 12 11 12 12 12 13 13 14 15 16 16 17 17 19 20 21 22 23 24 25 26 27 28 28 28 29 29 28 28 28 28 27 27 26 25 24 24 24 23 23 23 22 22 22 21 20 20 20 20 20 21 20 20 20 21 21 21 21 21 22 22 22 22 22 22 22 22
18 18 19 19 19 19 18 18 17 17 17 16 16 15 15 14 14 14 13 13 13 13 13 13 14 14 15 15 16 17 18 19 19 20 21 22 23 24 25 26 27 28 29 30 31 30 29 28 28 28 27 27 26 26 25 24 24 23 23 23 22 22 22 22 21 21 21 21 21 21 21 21 22 21 22 22 22 23 23 24 24 24 24 24 24
20 21 21 21 20 19 19 19 19 19 18 18 18 17 17 16 16 15 14 14 14 13 14 14 14 14 15 15 16 16 17 18 19 20 22 22 23 24 25 25 26 27 28 29 30 31 30 29 28 28 27 27 27 27 26 25 24 23 23 22 22 22 22 22 23 22 22 22 22 22 22 22 22 23 23 23 23 24 24 24 25 25 25 25 26
22 22 22 21 20 20 20 20 20 20 19 19 19 19 18 18 17 17 16 15 14 14 15 15 15 15 15 15 16 16 16 17 19 20 22 23 24 24 25 26 26 26 27 28 29 30 30 29 29 28 28 27 26 26 26 26 26 25 24 23 23 23 22 22 23 23 23 23 23 23 23 23 23 24 24 24 24 25 25 25 25 26 26 26 26
23 22 21 21 21 21 21 21 21 21 20 21 21 20 20 19 19 18 17 16 16 15 16 17 17 16 16 16 16 17 17 17 18 19 21 22 23 24 24 25 26 26 26 27 27 28 28 29 28 28 27 27 26 26 26 27 27 27 27 26 25 25 24 24 24 24 24 24 24 24 24 24 24 24 24 25 25 25 25 26 26 26 27 27 27
23 23 22 22 21 21 21 22 22 21 21 21 21 21 20 20 20 19 18 18 18 18 18 18 18 18 17 17 17 18 18 18 19 19 20 22 23 23 24 24 25 26 26 27 27 27 27 27 26 25 25 25 25 26 26 27 28 28 29 29 28 28 27 27 26 26 26 26 26 27 26 26 26 26 26 26 26 26 27 27 27 28 28 28 28
23 23 23 23 23 23 22 22 22 22 21 21 21 21 21 20 20 20 20 20 20 20 19 18 18 18 17 18 18 18 19 19 19 20 20 21 22 23 24 25 25 25 26 27 27 27 27 27 27 26 25 25 25 26 26 27 28 29 29 30 30 30 30 30 29 29 29 28 28 29 29 28 28 28 28 28 28 28 28 28 29 29 29 29 30
25 25 24 24 24 24 23 23 23 22 22 22 22 21 21 21 21 21 21 21 21 21 20 20 19 18 18 19 19 19 19 20 20 20 21 22 22 23 24 24 25 26 26 26 26 27 27 27 27 26 26 26 25 26 26 27 28 29 29 29 30 30 30 31 31 31 31 31 31 31 30 30 30 30 30 30 30 30 30 30 31 31 31 32 31
26 26 26 26 25 25 24 24 24 24 24 23 23 23 22 22 22 22 23 22 21 21 20 20 20 20 20 20 20 20 20 20 20 21 21 22 23 23 24 24 25 26 27 27 26 26 26 26 26 26 26 26 26 27 27 27 28 28 28 29 29 29 29 29 29 30 31 32 32 32 32 32 32 32 32 32 32 32 32 33 33 33 33 33 33
27 27 27 27 26 26 26 26 26 26 26 26 25 25 24 24 24 24 24 23 23 22 21 21 21 21 20 20 19 19 20 20 21 21 21 22 22 23 24 24 24 25 26 27 26 26 26 27 27 26 26 26 26 27 27 27 27 27 27 27 28 28 28 28 29 29 30 30 31 31 32 32 32 32 33 33 34 34 34 34 34 34 34 34 34
28 28 28 28 28 28 28 27 27 27 27 27 27 27 26 26 25 25 24 24 24 24 24 23 22 22 21 20 20 19 19 20 20 21 21 21 22 23 24 24 24 24 25 26 26 26 26 27 27 27 26 26 26 26 26 26 26 26 26 26 27 27 27 28 29 29 30 30 31 31 32 32 32 33 33 33 34 34 34 35 35 35 35 35 35
29 29 29 29 29 29 29 29 28 28 28 28 28 28 27 27 26 26 25 25 25 25 25 25 24 23 22 22 21 21 20 20 20 20 21 21 22 23 23 22 23 23 24 24 25 25 25 25 25 25 26 26 26 25 25 26 26 26 26 26 26 27 27 28 28 28 29 29 30 30 31 31 32 32 33 33 34 34 35 36 36 36 37 37 37
28 28 29 29 29 29 29 29 29 29 29 28 28 28 28 28 27 27 26 26 26 26 26 26 26 25 24 23 23 22 21 20 20 20 21 21 22 23 22 22 23 23 23 23 24 24 24 24 24 24 25 25 25 25 25 25 25 26 26 25 25 26 27 27 27 27 27 28 28 28 29 30 30 31 31 32 33 34 35 36 36 37 38 38 38
28 29 29 29 29 29 29 29 30 30 30 30 30 29 29 28 28 28 27 27 27 27 27 27 27 26 25 24 23 23 22 21 21 21 22 22 22 23 23 23 23 23 23 23 23 23 23 23 23 24 24 24 24 24 24 24 25 25 25 25 25 26 26 26 26 27 27 28 28 28 29 29 30 30 31 32 32 33 35 36 37 38 39 39 40
30 30 30 30 30 30 30 30 30 30 30 31 31 31 30 30 29 29 28 28 28 27 27 27 27 27 26 25 24 24 24 23 22 23 23 23 23 23 24 25 25 24 23 23 23 23 23 22 22 23 23 23 23 23 23 24 24 24 25 25 26 26 26 26 27 27 28 28 29 29 30 30 31 31 32 32 33 34 35 36 37 38 39 40 41
31 31 31 31 31 31 31 31 30 30 30 31 31 31 31 31 31 30 29 29 29 29 28 27 28 27 27 26 26 25 25 25 24 24 24 24 24 24 25 26 26 25 24 24 24 24 23 22 22 22 22 22 23 23 23 23 24 24 25 25 26 26 26 26 26 27 27 28 29 29 30 30 31 32 32 33 33 34 36 36 37 38 39 41 42
31 31 31 31 31 31 32 32 31 31 31 31 31 32 32 32 32 32 31 30 30 30 29 28 28 28 27 27 26 26 26 26 25 25 25 25 25 25 26 27 27 26 24 24 24 24 23 22 21 21 21 22 22 22 23 23 23 24 24 25 25 25 25 26 26 27 27 28 28 29 29 30 31 32 32 33 33 34 35 35 36 38 39 41 42
31 31 31 31 31 31 32 32 32 32 32 32 32 32 32 32 32 32 32 31 31 31 30 29 29 29 28 28 28 27 27 26 25 25 25 25 25 25 26 26 27 26 25 24 24 24 23 22 21 20 20 21 22 22 23 23 23 24 24 25 25 25 25 25 26 26 27 27 28 28 29 29 30 31 32 32 33 33 34 35 36 37 38 39 41
31 31 31 31 31 31 32 32 32 32 33 32 32 32 32 32 33 32 32 32 32 31 30 30 30 29 29 29 28 28 27 26 25 25 25 25 25 25 25 26 26 26 26 25 24 24 24 23 22 22 22 22 23 23 23 24 24 25 25 25 25 25 25 25 26 26 27 27 28 28 28 29 29 30 30 31 31 32 33 34 35 36 37 38 39
31 31 31 31 31 31 32 32 32 32 32 32 32 32 32 32 32 32 31 31 31 31 31 31 31 30 30 29 28 28 28 27 26 25 25 25 25 25 26 26 26 26 26 26 25 25 25 25 24 24 24 24 24 24 24 24 25 25 25 26 26 26 26 26 26 27 27 27 27 27 27 28 28 29 29 29 30 31 32 33 34 35 36 36 37
31 31 31 31 31 31 31 32 32 32 32 32 32 32 32 32 32 32 31 31 31 31 31 31 31 30 30 29 29 29 29 29 28 26 25 25 25 25 25 26 25 25 26 26 26 26 26 26 26 26 26 26 25 25 25 25 25 26 26 26 26 26 26 27 26 27 27 26 26 26 26 26 27 27 28 29 30 31 32 32 33 33 34 35 36
31 31 31 31 31 31 31 31 31 31 31 31 31 31 31 31 31 31 31 30 30 31 31 31 30 30 29 29 29 29 29 29 29 28 26 26 25 25 26 26 26 26 26 26 26 26 26 26 26 26 26 26 26 25 26 26 26 26 26 25 25 25 26 26 26 26 26 26 26 26 26 26 27 27 28 29 30 30 30 31 32 33 33 34 35
31 31 31 30 30 30 29 29 29 29 29 29 30 30 30 30 30 30 30 30 30 31 31 31 30 30 30 29 29 29 29 29 29 29 28 27 26 26 26 26 26 26 26 26 26 25 25 25 24 24 24 25 25 25 25 25 25 25 26 26 26 26 26 26 26 26 26 27 27 27 27 27 27 28 28 29 29 29 30 30 31 32 33 34 35
30 30 30 30 29 29 29 29 29 29 29 29 29 29 29 29 30 30 30 30 30 31 31 31 31 30 30 30 30 29 29 29 29 30 30 29 28 27 27 27 27 26 27 27 26 26 26 26 26 25 25 25 25 25 26 26 26 26 26 27 27 27 27 27 27 27 27 27 27 28 28 28 28 28 28 29 29 29 30 30 31 31 32 32 33
29 29 29 29 29 29 29 29 29 29 29 29 29 29 29 29 30 30 30 30 30 31 31 32 32 32 31 31 31 31 31 30 30 30 30 30 29 28 28 28 28 27 27 27 28 28 28 28 27 27 27 27 26 26 27 27 28 28 27 27 27 27 27 27 27 27 27 27 27 28 28 28 28 28 28 29 29 29 29 29 30 30 30 31 32
28 28 29 29 29 29 29 29 29 29 29 29 29 29 29 29 29 30 30 30 30 30 30 31 32 33 33 32 32 32 32 32 32 32 31 31 31 30 29 29 29 28 28 28 29 29 29 29 29 29 28 28 27 27 28 28 28 28 29 28 28 28 28 28 28 28 28 28 28 28 28 28 28 28 28 29 28 28 28 29 29 29 29 30 31
27 28 28 28 28 28 28 28 28 28 28 28 28 28 28 28 28 29 29 29 29 29 29 30 31 31 32 32 32 32 32 33 33 33 33 32 32 31 31 31 30 29 29 29 30 30 30 30 31 30 30 29 29 29 29 29 29 29 29 29 29 29 29 28 28 28 28 28 28 28 28 28 28 27 27 27 27 27 28 28 28 28 28 29 29
27 27 27 27 27 27 27 27 27 27 27 27 27 27 27 28 28 28 28 28 28 28 28 29 29 29 30 31 31 32 32 33 33 34 34 34 33 32 32 32 31 31 30 30 31 31 30 31 31 32 32 32 31 31 31 30 30 30 30 30 30 30 29 29 29 29 29 29 29 28 28 27 27 26 27 27 27 27 27 27 27 27 27 27 26
26 27 27 26 26 25 26 26 26 26 26 26 26 26 26 27 27 27 27 27 27 28 28 28 28 28 28 29 30 31 31 32 33 34 34 34 34 33 33 33 32 32 32 32 32 32 31 31 32 32 32 32 32 31 31 31 31 31 30 30 30 30 30 30 30 30 29 29 29 28 28 27 27 26 26 26 26 26 26 26 26 26 26 25 24
25 25 25 25 25 25 26 26 25 25 26 26 26 26 26 26 26 26 26 26 26 27 27 27 27 27 27 27 27 29 30 31 32 32 33 34 34 34 34 33 33 33 32 32 32 32 32 32 32 32 32 32 32 31 32 31 31 31 31 30 30 30 30 30 30 30 29 29 29 29 28 28 27 27 26 26 26 25 25 25 25 25 25 24 23
24 24 24 24 25 25 25 25 25 25 25 25 25 25 25 25 25 25 25 25 25 26 26 26 26 26 26 26 26 26 27 28 29 31 32 33 33 33 33 33 33 32 32 32 32 32 32 32 32 32 31 31 31 31 31 31 31 31 31 31 31 31 31 31 30 30 30 30 29 29 28 28 28 27 27 26 26 25 25 24 24 24 24 23 22
23 23 24 25 25 25 25 25 25 24 24 24 24 24 24 24 24 23 23 24 24 24 25 25 25 25 25 25 25 25 26 26 27 29 30 31 32 32 33 33 33 32 32 31 31 31 31 31 31 31 31 31 30 30 30 31 31 31 30 30 30 30 31 30 30 30 30 30 30 29 29 28 28 28 27 27 26 25 25 24 24 23 23 22 22
22 23 24 25 25 24 24 24 23 23 23 23 23 23 23 23 23 22 22 22 23 23 23 23 23 23 23 24 24 25 25 25 26 27 29 30 31 32 33 33 32 32 32 31 31 31 31 31 31 31 31 31 31 31 31 31 31 31 31 31 31 31 31 31 31 30 30 30 30 29 29 28 28 28 28 27 27 26 25 24 24 23 23 22 22
23 23 24 24 24 23 23 22 22 22 22 21 21 21 22 22 21 21 21 21 21 21 21 21 22 22 22 22 23 23 24 25 25 26 27 28 30 31 32 32 31 31 31 31 30 30 30 30 30 30 30 31 31 31 32 32 31 32 32 32 31 31 31 31 31 31 31 30 30 29 29 29 29 29 29 28 28 27 26 26 25 24 23 23 22
22 22 23 23 23 22 22 21 21 21 21 20 20 20 19 19 20 20 20 20 20 20 20 20 20 21 21 21 22 22 22 23 24 24 25 26 27 28 29 30 29 29 29 29 29 29 29 29 29 29 29 29 30 30 30 30 30 31 31 31 31 31 31 31 31 31 31 31 30 30 30 29 29 29 29 29 29 28 28 27 26 25 24 23 23
21 21 22 22 22 21 21 21 21 21 20 20 19 18 18 17 17 17 17 18 18 19 19 19 19 19 20 20 20 21 21 22 22 22 23 23 24 24 25 27 28 28 28 28 28 28 28 28 28 28 29 29 29 29 29 29 29 29 30 30 30 30 30 30 30 30 30 30 31 31 31 30 30 30 30 29 29 29 29 28 27 26 25 24 23
20 21 21 21 21 21 21 21 21 21 20 20 19 18 17 16 15 15 15 15 16 16 17 17 17 18 18 18 19 19 19 19 20 21 21 21 21 21 21 22 23 23 24 24 25 25 25 25 26 26 26 27 27 27 27 28 28 29 29 29 29 30 30 30 30 30 31 31 31 31 31 30 30 30 30 30 30 30 30 29 29 28 27 25 24
20 20 21 21 21 20 21 21 21 20 20 19 19 18 17 16 15 15 14 14 14 13 13 13 14 14 14 14 15 16 16 16 16 17 17 18 18 18 18 18 19 19 20 20 21 22 22 22 23 23 24 24 24 24 24 24 25 26 27 27 28 28 28 29 29 29 30 32 32 31 31 30 30 30 30 30 30 30 30 29 28 28 28 27 26
20 20 20 20 20 20 20 20 20 20 19 19 18 18 17 16 15 14 14 13 13 12 12 12 12 12 12 12 13 14 14 14 14 14 15 15 16 16 16 17 18 18 19 20 20 21 22 22 23 23 23 24 24 24 24 24 23 24 24 25 25 25 26 26 27 27 28 29 30 31 31 31 31 31 31 30 30 30 30 29 28 28 28 27 26
20 20 20 20 20 20 20 20 20 19 19 18 18 17 17 16 15 14 14 13 13 12 12 12 12 12 12 12 13 13 14 14 14 14 14 15 15 15 16 17 18 18 19 20 20 21 22 22 23 23 24 25 25 26 27 27 26 26 26 26 26 26 26 27 27 28 27 27 28 30 31 31 31 31 31 31 31 30 30 29 29 28 28 28 27
20 20 20 20 20 20 20 19 19 19 18 18 17 17 16 16 15 14 13 13 12 12 12 12 12 12 12 12 13 13 14 14 15 15 15 15 15 15 15 16 17 18 19 19 20 20 21 22 23 24 25 25 26 26 27 28 28 28 28 28 28 29 29 29 29 29 29 29 30 30 30 31 31 31 31 31 31 30 30 29 29 29 29 29 28
20 21 21 21 21 20 20 19 19 18 18 17 17 16 16 15 15 14 13 13 12 12 12 12 11 11 11 12 12 13 13 14 15 15 16 16 16 16 16 17 18 18 19 19 20 21 22 23 23 24 25 26 26 27 27 28 28 29 29 30 30 30 31 31 31 32 32 32 32 31 31 31 31 32 32 32 32 31 31 30 30 29 29 29 30
21 21 22 22 22 21 20 20 19 18 17 17 16 16 15 15 14 14 13 13 12 12 12 12 12 11 11 11 12 12 13 14 14 15 16 16 17 17 17 17 18 19 19 20 21 22 23 23 24 25 25 26 26 27 28 28 29 29 29 30 31 32 32 32 32 33 33 33 33 33 32 32 32 32 33 33 33 32 32 32 31 31 31 31 31
21 21 22 22 22 22 21 20 19 18 17 16 16 15 15 14 14 13 13 13 12 12 12 11 12 12 11 11 12 12 12 13 13 14 15 16 17 18 18 18 18 18 19 20 20 21 22 23 23 24 25 25 26 26 27 28 28 29 30 31 31 32 33 33 33 34 34 34 34 34 34 34 34 34 34 34 34 34 33 33 33 32 32 32 31
21 21 21 22 22 22 22 21 20 18 17 16 15 15 14 14 13 13 12 12 12 12 11 11 11 11 11 11 12 12 13 13 13 14 14 15 16 17 18 19 19 18 19 19 20 21 21 22 23 23 24 25 25 26 26 27 28 29 30 31 31 32 33 33 34 34 35 35 35 35 36 36 36 36 35 35 36 36 36 35 35 34 34 33 33
Wind_Direction
331 332 335 334 331 327 325 327 325 322 321 318 314 312 308 306 304 292 274 262 255 250 244 240 237 237 237 236 234 230 227 225 224 223 221 221 221 220 221 222 224 224 225 226 225 226 227 227 228 229 230 231 233 233 235 236 235 235 236 237 238 238 237 237 239 242 243 242 243 243 243 242 243 245 246 246 245 245 245 246 245 242 243 245 244
325 325 329 330 329 325 322 322 321 319 319 317 313 310 307 306 307 300 285 271 262 254 249 245 241 238 238 237 234 232 228 225 225 224 221 221 223 222 222 223 225 226 226 227 227 227 228 229 229 230 231 232 233 234 236 237 237 237 237 238 239 239 239 238 239 242 244 245 244 245 245 244 244 246 246 246 248 248 245 244 245 245 244 245 245
323 321 322 324 324 322 319 318 316 315 314 314 311 308 307 307 307 304 293 280 270 260 253 249 245 242 241 239 235 231 229 228 226 225 224 224 224 224 224 226 227 228 228 228 228 228 229 229 229 230 231 232 233 234 236 238 239 239 238 239 240 240 240 240 240 242 244 246 245 245 246 246 245 246 247 246 248 248 245 244 247 247 246 246 247
321 318 316 316 316 316 315 316 314 311 310 310 310 309 307 305 304 304 297 286 277 268 259 253 248 245 245 243 237 232 230 230 229 227 226 226 225 226 227 228 229 230 230 230 230 230 230 230 230 230 231 233 234 235 236 238 240 241 241 240 240 241 242 242 242 242 244 245 245 245 246 247 247 247 247 247 247 248 247 248 249 248 248 249 249
317 315 311 310 310 310 311 313 312 310 309 307 307 308 306 302 300 300 296 289 282 274 266 258 251 247 247 246 242 237 234 232 231 229 228 228 228 229 230 230 230 230 231 232 232 231 231 231 231 231 231 233 234 235 236 237 239 241 242 242 242 243 243 244 245 244 244 245 246 246 248 249 249 249 249 249 248 247 248 249 250 250 249 250 250
313 312 309 307 306 306 308 310 309 307 306 304 305 305 304 302 299 297 293 289 283 278 271 264 255 250 249 248 246 242 239 236 234 232 232 232 232 233 233 233 232 231 231 232 233 233 233 232 232 232 233 233 234 235 237 238 239 240 241 242 243 244 244 245 246 245 245 247 247 248 249 249 249 250 249 249 248 249 249 250 251 251 251 250 250
310 309 307 306 304 303 305 306 304 302 302 301 301 301 300 299 297 296 295 291 284 279 274 268 261 256 253 250 248 245 243 240 238 236 235 235 235 235 235 235 233 232 233 234 234 234 234 233 233 233 233 234 235 236 237 238 240 241 242 243 244 245 245 246 247 247 247 248 249 249 250 250 250 250 250 250 251 252 252 252 252 252 252 251 252
308 306 304 303 302 301 301 301 300 299 297 296 296 297 297 296 294 295 296 293 286 281 276 270 265 261 257 254 251 248 245 243 241 239 237 236 236 235 236 236 235 235 236 235 235 237 237 235 234 234 234 234 235 236 237 239 240 242 243 244 245 247 246 245 247 249 249 249 250 250 251 251 251 251 251 251 252 253 253 253 253 253 253 253 253
307 304 301 300 299 298 298 297 297 296 294 293 292 292 293 293 292 292 293 291 286 281 277 273 269 265 262 259 254 250 247 245 243 241 239 238 237 236 236 237 238 239 237 236 238 241 243 241 237 234 234 235 236 236 237 239 241 242 244 244 246 248 248 247 247 248 249 250 251 252 252 252 252 252 252 252 253 253 254 254 254 254 254 254 254
305 303 299 298 297 296 295 295 295 295 293 291 290 289 290 291 290 290 290 288 284 281 278 275 271 267 264 261 257 253 249 247 245 243 241 240 239 239 239 240 241 241 239 238 241 244 246 244 241 238 235 235 236 236 237 239 241 243 245 245 246 247 249 249 248 249 250 251 253 253 253 254 254 254 254 254 255 255 255 254 255 255 255 256 255
302 301 299 297 296 295 294 293 293 292 291 290 288 287 287 288 288 288 286 284 282 281 280 277 273 270 268 264 260 256 253 250 248 246 244 242 241 241 241 241 242 242 241 240 242 244 245 244 244 242 239 237 238 238 239 241 242 244 245 247 248 248 249 250 250 250 251 251 253 253 253 254 255 256 256 256 257 256 256 256 256 256 256 256 256
300 299 297 296 295 295 294 293 292 291 290 288 288 287 286 286 287 286 284 283 282 281 281 278 274 272 270 267 263 259 256 254 251 248 246 244 243 242 242 242 242 242 242 242 242 243 243 243 246 246 244 243 243 242 242 244 245 246 247 248 249 250 251 252 252 252 252 252 253 254 255 256 256 257 257 257 257 257 257 257 257 257 257 256 257
298 296 294 293 294 294 294 293 291 290 289 288 288 287 286 285 285 283 282 283 283 281 278 275 274 272 269 266 263 259 256 254 252 249 247 245 244 243 243 243 242 242 243 242 242 243 243 245 247 247 246 247 247 246 246 246 247 248 249 250 251 251 252 252 253 253 253 254 255 255 256 257 257 257 258 258 259 258 258 257 257 258 258 257 257
297 294 291 290 290 292 292 291 290 289 288 289 288 287 284 283 281 280 281 283 284 282 277 273 271 271 269 265 262 258 256 254 252 250 247 246 245 244 243 243 243 243 244 243 243 243 245 246 246 246 246 247 248 248 248 249 249 250 250 251 251 252 252 253 253 254 254 255 255 256 257 258 258 259 259 259 259 259 259 258 258 259 259 258 258
295 293 291 289 288 288 288 287 287 286 286 287 287 286 283 281 279 279 280 281 281 281 279 274 270 269 268 264 260 259 257 255 253 252 248 246 245 244 244 244 244 245 246 245 244 244 244 245 246 246 247 248 249 249 249 250 250 251 251 251 252 252 253 253 254 255 256 256 256 257 258 258 259 259 260 260 260 260 261 260 260 260 260 260 260
294 293 291 290 288 287 286 285 283 283 283 284 285 284 283 281 279 279 280 279 278 277 277 275 271 268 266 263 262 263 262 258 256 254 251 248 247 245 245 245 245 246 246 245 245 245 245 245 245 246 248 250 250 250 249 250 250 250 250 251 252 253 253 254 255 256 257 258 258 259 259 260 260 261 261 261 261 262 262 262 262 261 261 261 261
294 293 291 290 289 288 287 285 282 281 281 282 282 282 282 281 280 279 279 279 278 275 274 273 272 270 268 266 267 271 269 263 258 255 254 252 249 247 247 246 247 247 246 245 245 246 246 245 245 246 248 250 250 249 249 249 250 251 251 252 253 254 254 255 256 257 258 259 259 260 260 261 262 262 263 262 262 262 262 262 262 261 261 261 261
293 292 292 290 289 288 287 285 283 281 279 279 279 280 280 280 279 279 279 278 277 275 272 272 272 271 270 268 269 272 272 266 259 256 257 255 252 252 251 250 249 248 246 245 244 244 245 245 245 246 247 249 249 249 249 249 250 251 253 253 254 254 255 257 258 259 259 260 260 261 261 262 262 263 263 262 262 262 262 262 262 262 261 261 261
293 293 292 291 290 289 287 285 283 281 279 278 277 277 278 278 278 278 278 277 276 273 272 271 271 270 271 269 268 269 270 266 259 257 257 255 254 254 253 250 249 249 248 247 245 244 245 246 246 246 247 248 249 249 249 249 250 251 253 254 255 255 257 258 259 260 261 262 262 263 263 263 263 263 263 263 263 263 263 263 263 263 263 262 262
294 293 292 291 290 289 288 286 284 282 280 278 277 276 276 276 275 276 276 275 274 272 272 272 270 269 269 269 267 266 266 264 260 258 257 255 253 253 252 249 249 250 249 249 249 249 248 247 247 246 247 248 249 249 249 249 250 252 254 255 255 257 258 259 260 261 262 263 263 264 264 264 264 265 265 265 266 266 266 265 265 264 264 263 262
294 293 293 291 290 289 288 286 285 283 281 279 277 275 275 274 274 274 274 273 272 272 272 271 270 269 267 266 265 263 263 262 261 259 257 256 254 253 253 251 249 249 249 249 250 250 250 250 249 248 248 248 249 249 249 250 252 254 255 255 257 258 260 261 262 263 264 264 265 265 265 266 266 266 267 267 267 267 268 267 267 266 265 264 263
294 293 292 291 290 289 288 286 285 284 282 280 278 276 275 274 273 273 272 271 271 271 271 270 268 267 266 265 264 263 261 260 260 259 257 256 255 256 255 252 249 249 251 251 250 249 250 251 251 250 249 249 250 250 250 251 252 254 256 257 258 260 261 262 264 264 265 266 266 267 267 267 267 268 268 269 269 269 269 269 268 268 267 266 264
295 294 292 291 289 288 287 286 285 284 283 281 279 277 275 274 272 272 271 270 270 270 270 269 267 266 265 264 263 262 261 260 259 258 256 256 256 258 256 252 248 249 251 252 250 248 249 250 251 251 250 250 251 251 252 252 253 255 256 258 259 261 262 263 264 265 266 267 267 268 268 268 269 270 270 271 271 271 271 271 271 271 270 268 266
295 294 293 291 290 288 287 286 284 283 282 281 280 278 276 274 273 271 270 269 269 268 268 268 267 265 263 262 262 261 260 260 259 256 255 255 256 257 254 250 248 248 250 251 251 250 250 250 252 252 252 252 253 253 254 254 256 257 259 260 260 261 262 263 264 266 267 268 268 269 269 270 270 271 272 273 273 273 274 274 274 274 273 271 269
295 294 293 292 290 288 286 285 284 283 282 280 279 278 277 275 274 272 270 268 268 267 267 266 266 265 263 261 261 259 258 258 257 256 254 254 255 254 251 249 248 248 249 251 251 251 251 251 252 253 253 253 254 255 257 257 258 259 260 261 262 263 264 265 266 267 268 269 269 270 271 271 272 272 273 274 274 275 275 276 276 276 275 274 271
295 295 293 292 291 289 287 285 284 283 281 280 279 277 276 275 274 272 270 268 267 266 266 265 264 263 262 261 259 258 256 256 256 256 256 255 253 252 250 249 249 249 249 250 251 252 253 253 253 253 254 255 256 258 259 260 260 261 261 262 264 265 265 266 267 268 269 270 270 271 272 273 273 274 275 275 276 277 277 277 278 277 276 275 273
296 295 294 293 292 290 288 286 284 283 281 280 278 277 275 274 273 271 269 267 266 265 265 264 263 261 260 259 258 257 256 255 255 255 256 255 253 251 250 249 249 250 250 251 251 252 253 253 254 254 255 256 257 259 260 261 262 263 264 264 265 266 266 267 267 268 269 270 271 272 273 274 275 276 277 277 278 279 279 279 279 280 278 276 274
297 296 295 294 293 291 289 288 286 284 282 281 279 277 276 274 273 272 269 266 265 265 264 263 262 260 259 257 257 256 255 254 252 252 253 253 252 251 250 249 250 251 251 251 251 252 253 253 253 253 254 256 257 258 259 261 262 263 264 265 266 266 266 267 268 268 269 270 272 274 275 276 277 278 278 279 281 281 281 281 281 281 280 278 276
298 297 296 295 293 292 291 290 288 285 283 281 279 278 277 275 273 273 270 267 265 265 263 262 261 260 258 257 255 255 255 253 252 250 251 251 251 250 250 249 250 250 250 249 249 250 251 251 251 252 253 254 256 257 259 261 262 263 264 264 265 266 266 266 267 268 269 271 272 274 276 277 278 279 279 281 282 283 283 283 284 284 283 280 278
300 299 297 296 294 292 291 290 289 286 283 281 280 278 277 275 274 273 272 269 266 263 262 261 259 258 258 256 255 254 254 254 252 251 250 250 250 249 249 250 251 251 249 247 247 248 249 250 252 253 253 254 255 257 259 260 262 263 264 265 265 265 266 266 266 267 269 270 271 273 275 277 278 279 280 281 283 284 284 285 286 286 285 283 280
302 301 299 297 294 293 291 290 289 286 284 282 280 279 278 277 275 274 272 270 268 264 262 260 259 258 257 256 255 254 253 253 253 251 250 248 247 247 248 249 250 250 249 248 247 248 249 251 253 254 255 255 256 258 260 261 263 263 264 265 265 265 265 266 267 268 269 270 271 273 275 277 278 280 281 282 283 284 285 287 288 288 287 285 283
305 305 303 299 296 294 292 291 289 287 284 282 281 280 279 277 276 274 272 271 269 267 264 262 260 259 258 257 256 254 253 252 252 252 251 249 247 247 248 248 249 249 249 249 248 249 250 251 253 254 255 256 258 259 261 262 263 264 264 265 266 266 266 267 268 269 270 271 272 274 275 277 278 279 281 282 283 284 286 288 289 290 289 288 287
308 308 306 303 300 297 294 292 290 288 286 284 282 280 279 278 276 275 273 271 269 267 265 263 261 260 259 257 256 255 253 252 251 251 251 249 248 247 247 247 248 248 248 249 249 251 252 253 253 254 256 257 259 260 261 262 264 264 265 265 265 265 266 267 268 269 270 271 272 274 276 277 278 279 280 282 283 284 285 287 289 291 292 292 292
310 309 309 307 305 302 298 294 291 289 287 285 283 281 280 279 277 276 274 272 270 268 267 265 263 261 259 258 256 254 253 252 251 250 250 249 248 247 247 248 248 248 249 250 251 252 254 255 255 256 257 259 260 261 261 262 264 264 264 264 264 265 266 267 268 269 270 271 272 273 275 276 277 278 280 281 283 283 285 287 289 291 293 294 295
312 311 311 310 308 306 304 300 295 291 289 286 284 283 281 280 278 276 273 272 270 269 268 266 264 262 260 258 256 254 253 252 251 250 249 249 248 247 248 248 248 249 250 251 252 253 254 255 256 257 259 260 260 260 261 262 263 264 264 264 264 264 265 266 267 268 269 270 271 272 273 274 276 277 279 280 282 283 285 286 288 290 291 293 295
313 313 312 312 312 310 307 304 300 295 291 288 286 284 283 281 278 276 274 273 271 269 267 266 265 262 260 258 257 256 254 253 252 250 248 248 248 247 247 248 248 249 250 251 252 253 254 255 256 258 259 260 260 260 260 261 262 263 263 263 263 264 265 266 266 267 268 269 270 271 272 272 274 276 277 279 280 282 284 286 287 288 289 291 293
314 314 314 315 315 313 311 309 305 300 295 291 288 286 284 282 280 278 276 274 272 270 268 266 264 262 260 258 258 258 256 255 253 250 247 247 247 247 247 248 248 249 250 251 252 253 253 254 256 257 258 259 260 260 261 261 261 262 263 263 263 263 264 266 267 267 267 268 269 270 271 271 272 274 276 277 279 280 282 284 285 286 287 288 289
313 315 316 317 317 316 314 313 311 306 301 295 291 288 286 283 282 279 277 275 273 271 269 266 263 261 260 259 259 259 258 257 255 252 248 246 246 246 247 248 249 249 250 251 252 253 254 254 255 257 258 259 259 260 261 261 261 261 262 264 264 265 265 266 267 268 268 268 268 268 269 270 272 273 274 275 277 278 279 281 282 284 285 285 285
314 315 318 320 320 318 317 317 316 314 309 303 297 293 289 286 283 281 279 277 275 272 269 267 264 261 260 260 260 259 257 256 256 254 251 248 247 246 247 247 248 249 250 251 252 254 255 255 255 256 257 258 259 260 260 260 261 262 263 265 266 266 265 265 265 267 268 269 269 268 268 268 270 272 273 273 275 276 277 278 279 280 281 282 282
316 317 319 321 322 321 320 320 319 319 317 312 306 299 294 290 287 284 282 279 277 274 271 269 266 263 261 261 261 260 257 255 255 256 254 251 249 247 245 245 246 247 248 249 251 253 254 255 256 257 258 259 260 260 260 260 261 263 264 265 266 266 266 265 265 266 267 268 269 269 269 268 269 271 272 272 273 274 275 276 277 277 278 278 279
317 318 320 322 323 324 324 324 323 322 321 319 315 309 303 297 292 288 285 282 280 278 275 271 268 265 264 263 262 261 258 255 256 257 256 255 253 251 247 245 245 246 247 249 250 251 253 254 256 257 258 260 261 262 261 260 261 263 264 264 265 266 266 266 265 265 265 265 266 268 268 268 268 269 270 271 272 272 273 274 275 275 275 275 275
319 320 321 322 323 325 325 326 326 324 323 322 321 318 314 309 302 297 293 289 285 282 278 274 270 268 267 265 264 261 259 257 257 257 257 257 258 258 254 249 247 248 249 249 250 252 253 254 256 257 258 259 262 264 263 261 261 262 263 264 265 266 266 266 265 264 263 264 265 266 268 268 268 268 269 270 271 271 271 272 272 272 272 272 272
321 321 322 322 323 324 325 325 325 325 325 324 323 322 320 317 312 308 303 299 295 290 284 278 273 270 268 267 264 261 260 259 257 256 256 258 260 261 257 252 250 250 251 250 251 253 254 255 256 258 259 260 262 264 265 264 263 263 264 265 265 265 266 266 266 264 263 263 264 266 267 268 269 269 269 269 270 271 271 270 269 269 269 269 270
325 324 324 324 324 324 325 324 324 324 324 325 325 325 323 319 316 313 309 306 303 300 294 288 280 274 270 269 266 262 262 262 260 257 256 259 262 261 258 255 254 255 255 255 255 255 256 257 258 259 260 260 261 263 266 268 267 266 266 267 267 268 268 268 268 268 267 265 265 266 267 268 269 270 270 270 270 271 272 272 271 270 268 268 267
330 328 328 327 326 326 326 325 324 324 324 325 325 325 325 322 320 316 313 309 305 301 299 295 290 282 275 272 270 266 264 265 264 260 259 263 265 264 261 260 259 259 259 259 259 258 258 260 261 262 261 262 262 264 267 270 271 270 270 271 272 272 272 272 271 272 272 270 268 267 267 268 269 269 270 271 271 271 272 274 273 272 271 270 269
334 333 332 331 329 327 327 326 326 325 325 325 325 324 323 322 320 317 315 313 309 304 299 295 292 286 279 274 272 270 268 266 266 265 263 265 267 266 264 263 263 262 261 261 261 261 261 261 263 264 264 265 266 266 268 270 271 271 271 272 273 273 273 273 273 273 274 273 272 270 269 269 269 269 269 270 270 270 271 271 271 269 269 269 270
338 337 337 335 332 329 327 327 326 326 325 324 324 324 323 321 320 317 315 314 311 308 304 299 295 290 284 278 276 275 272 269 267 267 266 266 267 268 268 269 267 265 263 262 262 263 264 264 264 265 266 267 267 268 269 270 271 272 272 272 272 273 273 274 273 273 273 273 273 272 271 270 269 269 269 270 270 269 269 269 269 269 267 266 267
340 340 340 339 336 333 330 327 326 325 324 323 323 323 323 322 321 319 317 314 311 308 306 303 299 294 288 283 280 279 277 274 271 269 268 268 269 269 271 272 271 268 266 265 265 267 267 267 267 268 268 268 269 270 271 272 273 273 273 273 274 275 275 275 273 272 272 272 272 271 271 270 270 270 269 269 268 268 267 267 268 269 268 266 266
339 339 339 340 339 337 334 331 328 325 324 322 322 322 323 323 323 321 319 317 313 308 305 303 299 296 292 287 284 284 283 281 278 274 272 271 271 271 272 274 275 273 271 270 270 270 270 270 271 270 270 270 271 272 273 274 274 275 274 275 276 277 277 276 274 273 272 272 271 270 270 270 269 269 269 268 268 268 267 267 267 267 267 267 267
339 338 339 340 340 339 338 335 332 329 326 323 322 321 322 323 324 323 322 320 317 314 310 305 301 297 294 290 286 285 285 285 284 280 276 274 272 272 272 275 278 278 276 274 273 273 273 273 273 273 272 272 273 275 276 277 277 277 277 278 278 279 278 277 276 274 273 272 271 270 270 269 268 268 268 268 267 267 267 267 266 266 267 268 268
339 339 339 339 340 340 339 338 336 333 329 325 321 320 320 321 322 323 323 322 320 319 316 312 307 302 298 293 288 286 285 286 286 285 281 279 276 274 274 275 276 277 277 277 278 278 278 278 278 277 276 274 275 277 279 279 279 280 280 280 280 281 280 279 277 276 274 272 271 270 269 269 269 268 268 267 267 267 267 267 266 265 266 266 267